{"data":{"norad_id":67929,"epoch":"2026-09-19T14:58:47.364384Z","epoch_age_seconds":138876,"freshness":"FRESH","line1":"1 67929U 26036AB  26262.62415931  .00011567  00000+0  42906-3 0  9992","line2":"2 67929  42.9986 229.8663 0000433 306.4795  53.6017 15.27590627 33386","mean_motion":15.27590627,"eccentricity":4.33e-5,"inclination_deg":42.9986,"raan_deg":229.8663,"arg_perigee_deg":306.4795,"mean_anomaly_deg":53.6017,"bstar":0.00042906,"rev_number":3338,"period_min":94.266092927526,"perigee_km":482.72018718297,"apogee_km":483.3143631432,"semimajor_km":6861.1542751631,"source":"CELESTRAK","updated_at":"2026-09-20T09:00:43.705947Z"}}